Location: Grabówka
(50.9517°N, 19.2107°E)
Time: 14:59:00
(UTC+00:00)

Daily predictions for brighter satellites

Satellite Brightness Start Highest point End
(mag) Time Altitude Azimuth Time Altitude Azimuth Time Altitude Azimuth
Cosmos 1459 Rocket 4.4 18:42:14 10° SSE 18:48:07 45° E 18:53:56 10° NNE
ATLAS 2AS CENTAUR R/B 2.7 18:44:07 10° SW 18:51:04 79° SE 18:57:55 10° NE
SL-24 R/B 4.1 18:47:01 10° NNE 18:51:15 71° ESE 18:55:37 10° S
Cosmos 2100 Rocket 4.2 18:45:26 10° SSE 18:51:24 52° E 18:57:30 10° NNE
Cosmos 44 Rocket 4.4 18:48:01 10° SSE 18:52:03 24° ESE 18:56:09 10° ENE
Cosmos 1743 3.7 18:51:15 10° NNE 18:53:39 21° ENE 18:56:02 10° ESE
BREEZE-M DEB (TANK) 3.4 18:50:23 10° SW 18:54:17 23° SSE 18:56:25 10° ESE
Ariane Rocket 4.4 18:53:09 10° ESE 18:57:12 25° ENE 19:01:15 10° N
ISS -1.8 18:56:46 10° SSE 18:58:13 12° SE 18:59:39 10° ESE
ADEOS 3.6 18:53:53 10° SSE 18:59:05 84° ENE 19:04:21 10° NNW
Cosmos 2322 Rocket 4.4 18:57:08 10° N 19:00:25 15° NNE 19:03:44 10° ENE
Spot 2 Rocket 3.7 18:57:56 10° SSE 19:02:51 60° ENE 19:07:49 10° N
Cosmos 2082 Rocket 3.6 19:00:47 10° SE 19:04:43 19° E 19:08:38 10° NE
Cosmos 2151 Rocket 3.5 19:02:48 10° S 19:07:10 86° E 19:11:34 10° N
SL-4 R/B 2.8 19:04:12 10° W 19:07:42 35° SSW 19:11:16 10° SE
Okean 2 Rocket 3.1 19:05:08 10° S 19:09:35 71° E 19:14:04 10° NNE
BREEZE-M DEB (TANK) 4.4 19:07:57 10° WSW 19:12:53 81° SSE 19:35:06 10° ENE
Cosmos 1536 Rocket 4.0 19:10:11 10° NNW 19:14:29 63° W 19:18:48 10° S
Cosmos 1371 Rocket 4.3 19:09:19 10° SSW 19:14:36 74° WNW 19:19:59 10° NNE
IRS-1A Rocket 4.5 19:09:43 10° SSE 19:15:31 86° WSW 19:21:28 10° NNW
Timation 1 Rocket 4.5 19:11:30 10° S 19:17:18 53° ESE 19:23:08 10° NE
Cosmos 292 Rocket 4.0 19:13:18 10° NNW 19:18:05 71° WSW 19:22:48 10° SSE
Tsikada Rocket 4.5 19:12:30 10° N 19:18:26 45° ENE 19:24:01 11° SE
CZ-4C R/B 2.1 19:18:38 10° S 19:22:33 41° ESE 19:27:28 10° NE
Cosmos 2228 3.9 19:19:24 11° SSE 19:22:46 28° E 19:26:18 10° NNE
Cosmos 1697 Rocket 3.2 19:18:29 10° NW 19:23:59 56° WSW 19:29:27 10° S
Cosmos 1725 Rocket 4.2 19:17:58 10° S 19:24:04 57° E 19:30:11 10° NNE
Okean O Rocket 1.5 19:20:34 10° SSE 19:24:52 84° ENE 19:29:11 10° NNW
USA 305 3.0 19:21:17 10° WNW 19:25:22 63° NNE 19:29:05 10° E
ATLAS 3B R/B 3.2 19:18:45 10° NW 19:26:30 68° SW 19:33:32 11° SSE
ERS-1 Rocket 3.9 19:22:12 10° S 19:27:00 46° W 19:31:51 10° NNW
Cosmos 1741 Rocket 4.1 19:22:22 10° NNW 19:27:43 90° ESE 19:32:45 11° SSE
SL-16 R/B 3.6 19:23:03 10° NNW 19:27:53 27° NE 19:32:40 10° E
Cosmos 1452 Rocket 3.7 19:23:43 10° S 19:28:43 48° ESE 19:33:45 10° NNE
Helios 1A Rocket 3.5 19:25:56 10° N 19:28:59 43° WNW 19:31:59 10° SW
USA 186 1.2 19:28:18 13° SSE 19:30:33 89° ENE 19:33:17 10° NNW
Cosmos 1867 4.0 19:25:45 10° SW 19:31:10 69° NW 19:36:38 10° NE
Okean-O 2.7 19:33:19 10° S 19:37:41 76° WSW 19:42:05 10° NNW
Cosmos 1331 Rocket 3.9 19:32:47 10° SSW 19:38:02 78° ESE 19:43:16 10° NNE
Cosmos 968 Rocket 4.3 19:33:29 10° NNW 19:38:31 48° WSW 19:43:31 10° S
Cosmos 2333 Rocket 3.6 19:35:42 10° NNW 19:40:39 30° NE 19:45:37 10° ESE
Cosmos 1892 Rocket 3.5 19:38:10 10° N 19:42:32 89° W 19:46:26 13° S
CZ-4B R/B 3.6 19:39:17 15° SE 19:43:02 56° ENE 19:47:44 10° N
Cosmos 2016 Rocket 4.0 19:36:56 10° S 19:43:11 71° E 19:49:22 10° NNE
Cosmos 2173 Rocket 4.3 19:39:28 10° SSW 19:45:35 72° WNW 19:51:49 10° N
Cosmos 1302 Rocket 4.4 19:41:42 10° S 19:46:33 42° ESE 19:51:25 10° NE
USA 245 4.4 19:42:23 13° SSE 19:47:40 80° ENE 19:53:31 10° NNW
Cosmos 1455 Rocket 3.0 19:43:50 10° S 19:48:14 80° E 19:52:39 10° NNE
Cosmos 2061 Rocket 4.2 19:44:57 11° SSE 19:50:40 53° E 19:56:45 10° NNE
SL-08 R/B 3.8 19:45:56 10° N 19:50:46 66° WNW 19:55:31 10° SSW
Cosmos 1980 Rocket 2.4 19:46:28 10° NNW 19:52:10 72° WSW 19:56:48 16° SSE
Okean 1 Rocket 4.0 19:50:08 10° SSW 19:54:23 49° WNW 19:58:41 10° N
Cosmos 724 4.4 19:48:33 10° SSW 19:54:24 54° ESE 20:00:10 10° NE
SPOT 3 Rocket 3.5 19:53:56 16° SSE 19:58:09 87° ENE 20:03:19 10° NNW
CZ-4 R/B 4.2 19:58:58 10° WSW 19:59:53 11° W 20:00:48 10° WNW
CZ-4B R/B 2.3 19:58:30 21° SSE 20:00:35 88° W 20:04:00 10° NNW
Cosmos 1544 Rocket 4.4 19:58:36 21° SE 20:00:43 32° E 20:04:34 10° NNE
Cosmos 1782 2.4 19:59:06 14° S 20:02:06 86° E 20:05:38 10° N
Cosmos 1933 4.4 20:09:27 23° ESE 20:10:29 27° E 20:13:43 10° NNE
Cosmos 1802 Rocket 4.4 20:05:56 10° SSW 20:12:05 66° WNW 20:18:14 10° N
Cosmos 2084 Rocket 3.4 20:07:57 10° NW 20:12:10 84° NE 20:14:32 26° SE
Cosmos 1833 Rocket 4.1 20:07:03 10° WSW 20:12:20 41° NW 20:17:40 10° NNE
Terra 4.1 20:10:30 10° SW 20:13:56 20° W 20:17:24 10° NW
Cosmos 1758 Rocket 3.7 20:10:00 10° N 20:14:19 61° ENE 20:16:41 26° SSE
IRS-1C Rocket 4.1 20:10:56 19° SSE 20:14:47 86° WSW 20:20:07 10° NNW
Gbstr 26 Del rocket 3.7 20:12:19 10° WNW 20:16:59 42° SSW 20:18:53 26° SSE
Cosmos 2360 Rocket 3.5 20:13:09 10° NNW 20:18:13 32° NE 20:22:30 13° ESE
NOSS 3-3 (C) 4.2 20:15:34 19° S 20:18:43 36° ESE 20:24:13 10° NE
Helios 1B rocket 4.0 20:17:54 15° E 20:19:13 18° ENE 20:21:41 10° NNE
CZ-2C R/B 1.9 20:23:39 42° S 20:24:27 74° WSW 20:27:14 10° NNW
Cosmos 1743 4.3 20:24:03 10° NW 20:26:27 22° W 20:28:34 12° SW
Cosmos 2237 4.2 20:21:59 10° NNW 20:27:45 81° WSW 20:31:12 25° SSE
Geosat 4.3 20:24:46 10° NE 20:29:36 46° ESE 20:32:21 23° S
NOSS 3-4 (A) 4.3 20:25:57 10° NW 20:32:14 54° NE 20:38:37 14° ESE
NOSS 3-4 (C) 4.3 20:26:32 10° NW 20:32:50 54° NE 20:39:16 14° ESE
Cosmos 44 Rocket 3.7 20:27:56 10° SW 20:33:01 71° NW 20:38:13 10° NE
ISS -3.6 20:31:10 10° SW 20:34:25 49° SSE 20:35:05 41° ESE
Ariane Rocket 3.4 20:32:21 20° S 20:35:43 59° WSW 20:40:45 10° NNW
Cosmos 2219 Rocket 3.7 20:30:52 10° NNW 20:35:45 29° NE 20:40:07 12° E
Cosmos 1602 Rocket 3.6 20:35:45 10° N 20:40:01 64° ENE 20:41:43 35° SSE
ATLAS 2AS CENTAUR R/B 4.1 20:36:07 10° W 20:42:34 40° NNW 20:48:56 10° NE
Cosmos 2369 4.1 20:37:35 10° NW 20:43:10 57° WSW 20:46:24 25° S
Cosmos 2322 Rocket 2.8 20:40:27 10° NNW 20:45:56 47° NE 20:49:17 22° ESE
Cosmos 2082 Rocket 2.3 20:42:20 10° SSW 20:48:05 84° WNW 20:53:50 10° NNE
Cosmos 1437 Rocket 2.4 20:47:58 48° SSE 20:48:44 65° E 20:52:17 10° NNE
USA 305 2.7 20:46:50 10° WNW 20:50:44 48° SW 20:51:08 46° SSW
Cosmos 909 Rocket 3.9 20:44:42 10° SSW 20:51:01 77° SE 20:57:31 10° NE
Cosmos 1891 Rocket 4.4 20:46:58 23° S 20:51:02 81° E 20:57:08 10° NNE
Cosmos 2151 3.0 20:47:08 10° NNW 20:51:16 72° W 20:52:53 35° S
USA 234 3.8 20:47:27 10° ENE 20:53:17 33° SE 20:55:31 27° SSE
Meteor 1-5 Rocket 4.3 20:49:37 10° N 20:55:15 67° ENE 20:58:02 31° SSE
Cosmos 1626 Rocket 4.3 20:53:45 10° NNW 20:57:55 47° W 21:00:05 25° SSW
Cosmos 1607 4.0 20:53:20 10° SW 20:59:30 80° NW 21:05:50 10° NE
Okean O Rocket 4.2 20:59:48 10° WSW 21:01:39 12° W 21:03:30 10° WNW
Cosmos 2278 3.7 20:59:20 10° NNW 21:05:06 81° ENE 21:07:47 33° SE
Cosmos 1503 Rocket 4.5 21:01:22 10° NNW 21:06:27 50° ENE 21:08:48 29° ESE
Cosmos 1777 Rocket 4.2 21:01:40 10° NNW 21:06:54 64° ENE 21:09:08 34° SE
Okean 1-7 Rocket 3.5 21:03:59 10° N 21:08:27 77° E 21:09:50 43° SSE
Cosmos 1992 Rocket 4.1 21:05:58 17° SSW 21:10:05 74° WNW 21:15:20 10° NNE
CZ-4C R/B 3.1 21:06:20 10° WSW 21:10:41 44° NNW 21:16:18 10° NE
IKONOS-2 4.3 21:06:38 10° NNE 21:10:45 71° ESE 21:11:49 47° S
COSMOS 2406 3.1 21:07:29 23° SSW 21:11:08 77° ESE 21:16:53 10° NNE
Cosmos-2242 4.3 21:11:13 24° E 21:11:31 24° E 21:14:50 10° NE
Helios 1A 2.7 21:08:20 10° NNE 21:12:16 68° ESE 21:13:02 53° SSE
SL-16 R/B 2.2 21:06:51 10° NNW 21:12:32 75° WSW 21:14:58 36° SSE
Nadezhda 4 Rocket 3.9 21:09:14 10° N 21:15:23 88° E 21:18:18 34° S
Cosmos 1606 Rocket 3.6 21:15:48 47° SSE 21:16:50 64° E 21:21:08 10° NNE
Cosmos 1805 2.8 21:14:35 10° NNW 21:17:50 68° W 21:18:02 66° SW
Cosmos 1486 Rocket 3.9 21:13:19 10° NNW 21:18:37 86° ENE 21:20:37 39° SSE
USA 290 4.3 21:24:21 17° ENE 21:24:21 17° ENE 21:25:33 10° NE
Cosmos 2333 Rocket 2.3 21:19:46 10° NW 21:25:26 69° WSW 21:27:39 38° S
CSL-04 DEB 3.9 21:26:07 71° SSE 21:26:29 84° ENE 21:30:05 10° NNW
Cosmos 2098 Rocket 3.4 21:25:32 34° SSW 21:27:45 78° W 21:32:22 10° N
SeaSat 1 4.1 21:24:17 12° E 21:27:59 27° NE 21:32:03 10° NNW
Cosmos 1766 3.9 21:25:41 10° N 21:28:33 32° ENE 21:28:33 32° ENE
Cosmos 1726 Rocket 3.4 21:29:27 55° SE 21:29:59 62° E 21:34:00 10° NNE
Cosmos 2195 Rocket 4.4 21:27:11 10° N 21:33:30 84° E 21:36:10 37° SSE
Cosmos 1076 Rocket 3.4 21:29:53 10° N 21:34:11 85° ENE 21:35:03 57° SSE
Cosmos 1980 Rocket 4.5 21:32:35 10° WNW 21:35:08 13° W 21:37:40 10° WSW
CZ-2C R/B 4.1 21:34:56 17° ESE 21:37:48 27° ENE 21:42:08 10° N
Cosmos 2026 Rocket 4.0 21:33:38 10° N 21:40:02 80° E 21:42:46 37° SSE
NOSS 3-3 (A) 4.1 21:35:55 10° SW 21:41:13 68° NW 21:47:42 10° NE
Spot 4 3.8 21:44:25 47° SE 21:45:44 75° ENE 21:50:32 10° NNW
DNEPR-1 R/B 4.3 21:41:37 10° NW 21:47:00 70° SW 21:49:21 39° SSE
Aureole 1 Rocket 4.2 21:43:53 10° NNW 21:48:58 53° ENE 21:51:56 29° ESE
Okean 1 3.0 21:49:59 67° WSW 21:50:12 69° WNW 21:53:47 10° N
Helios 1B rocket 2.7 21:51:51 42° WSW 21:51:56 42° W 21:55:18 10° NNW
SAR-Lupe-2 3.8 21:53:25 54° ENE 21:53:25 54° ENE 21:56:36 10° N
Cosmos 1975 4.3 21:50:30 10° NNE 21:53:31 23° ENE 21:54:01 23° E
Cosmos 2333 4.2 21:49:55 10° NNW 21:55:39 79° WSW 21:57:35 43° SSE
Cosmos 44 4.3 21:51:14 10° NW 21:56:31 49° NE 21:59:52 21° ESE
Cosmos 1464 Rocket 4.4 21:53:23 26° SW 21:56:52 57° WNW 22:02:58 10° N
Cosmos 2360 Rocket 2.3 21:56:59 10° NW 22:02:35 61° WSW 22:04:14 43° S
Cosmos 1271 Rocket 4.1 22:04:45 24° ENE 22:04:45 24° ENE 22:07:04 10° NE
Meteor 1-26 Rocket 4.1 22:03:06 45° S 22:04:51 81° E 22:10:30 10° NNE
RESURS DK-1 4.2 22:03:34 10° NNW 22:06:56 25° NE 22:09:02 17° E
ALOS 2 2.5 22:06:32 61° S 22:07:17 84° WSW 22:11:43 10° NNW
ARIANE 5 R/B 2.6 22:07:11 56° SSW 22:07:56 69° WSW 22:12:24 10° NNW
NOSS 3-3 (C) 4.4 22:03:54 10° WSW 22:09:16 57° NW 22:15:48 10° NE
Cosmos 1953 Rocket 3.9 22:05:48 10° NNW 22:10:05 53° W 22:10:47 47° SW
ISS -1.2 22:07:48 10° W 22:08:15 13° W 22:08:15 13° W
GP-B 4.2 22:07:24 10° NNE 22:11:20 32° E 22:12:04 30° ESE
Cosmos 2058 Rocket 2.9 22:11:46 65° S 22:12:22 83° E 22:16:45 10° NNE
BREEZE-M R/B 4.0 22:11:02 10° W 22:18:16 77° SSW 22:24:12 10° ESE
Cosmos 1092 Rocket 4.1 22:12:27 10° NNW 22:18:33 67° W 22:20:51 39° SSW
CZ-2C R/B 3.8 22:14:35 10° N 22:18:59 66° WNW 22:20:05 47° SW
Helios 1B 4.4 22:15:04 10° NNE 22:19:21 74° ESE 22:19:49 66° SSE
Cosmos 2219 Rocket 2.2 22:14:33 10° NNW 22:20:11 70° WSW 22:21:47 47° S
NOSS 3-4 (A) 4.1 22:16:45 10° NW 22:23:17 53° SW 22:26:00 37° S
NOSS 3-4 (C) 4.1 22:17:21 10° NW 22:23:55 54° SW 22:26:40 37° S
Cosmos 540 Rocket 3.3 22:23:21 50° SSW 22:24:46 87° ESE 22:29:57 10° NNE
PSLV R/B 3.4 22:20:57 10° NNE 22:25:11 85° ESE 22:25:44 67° S
Meteor 1-14 Rocket 4.3 22:20:00 10° N 22:25:36 71° ENE 22:27:27 42° SSE
Cosmos 1898 Rocket 3.9 22:21:04 10° NNW 22:26:10 56° ENE 22:28:15 33° ESE
Cosmos 1461 3.2 22:26:32 43° W 22:27:19 52° NW 22:30:57 10° NE
Cosmos 2322 Rocket 3.0 22:24:43 10° NW 22:29:51 36° WSW 22:31:03 33° SW
MetOp-A 3.8 22:29:01 51° SSE 22:30:19 87° ENE 22:35:13 10° NNW
Cosmos 2082 Rocket 4.4 22:28:33 10° W 22:33:01 23° NW 22:37:29 10° NNE
SL-08 ROCKET BODY 4.4 22:30:04 10° NNW 22:36:13 80° W 22:38:25 43° S
USA 234 3.2 22:30:15 10° ENE 22:36:51 86° SSE 22:42:49 13° WSW
Cosmos 1707 3.7 22:38:21 29° NW 22:38:21 29° NW 22:40:21 10° N
Cosmos 1536 3.3 22:34:45 10° NNW 22:38:06 43° W 22:38:06 43° W
Meteor 2-9 Rocket 4.0 22:34:29 10° NNW 22:39:52 84° E 22:41:29 47° SSE
ACS3 Solar Sail 3.1 22:36:37 10° NNE 22:41:42 28° E 22:44:07 21° SE
COSMOS 2428 2.9 22:38:09 10° NNW 22:43:52 69° ENE 22:46:33 32° SE
Cosmos 2237 Rocket 3.4 22:41:58 10° NNW 22:47:17 38° NE 22:52:25 11° ESE
Cosmos 1763 Rocket 3.9 22:45:39 34° SW 22:47:48 59° WNW 22:53:03 10° NNE
TSX-5 3.8 22:44:52 10° NNW 22:47:24 55° N 22:47:24 55° N
Cosmos-2242 3.9 22:47:28 33° W 22:48:20 37° WNW 22:52:11 10° N
CZ-2C R/B 3.2 22:44:20 10° NNE 22:50:02 81° ESE 22:51:56 45° S
ARGOS Delta rocket 4.4 22:49:31 10° N 22:54:21 53° WNW 22:56:07 36° SW
SL-16 R/B 4.2 22:52:54 10° WNW 22:55:38 14° W 22:56:47 13° WSW
USA 290 3.9 22:56:48 26° WNW 22:57:02 26° WNW 22:59:46 10° N
CZ-4C R/B 4.2 22:55:07 10° NNE 22:57:47 32° E 22:57:47 32° E
Cosmos 1634 Rocket 4.5 22:57:50 31° SW 23:00:34 51° WNW 23:06:36 10° N
Cosmos 1238 Rocket 4.0 23:01:17 27° E 23:01:36 28° E 23:04:59 10° NNE
Cosmos 2227 Rocket 4.4 23:00:15 10° ESE 23:02:15 12° E 23:04:15 10° ENE
Cosmos 1766 Rocket 4.5 22:58:20 10° N 23:02:25 40° ENE 23:03:43 32° ESE
Cosmos 2279 Rocket 4.1 23:01:48 37° SW 23:04:19 66° WNW 23:10:35 10° N
Cosmos 1470 3.4 23:01:40 10° NNW 23:04:12 35° WNW 23:04:12 35° WNW
SeaSat 1 2.4 23:03:53 52° S 23:05:00 71° WSW 23:09:55 10° NW
Intercosmos 24 3.9 23:04:07 10° N 23:08:39 70° ENE 23:09:11 60° SE
Cosmos 2333 Rocket 4.3 23:06:26 10° WNW 23:08:39 12° W 23:09:39 12° WSW
Cosmos 2221 2.4 23:09:57 61° WSW 23:10:27 69° WNW 23:14:38 10° N
Cosmos 1842 4.2 23:13:51 29° WNW 23:13:51 29° WNW 23:16:27 10° N
Cosmos 841 Rocket 3.5 23:12:28 48° S 23:13:47 67° ESE 23:18:59 10° NNE
CZ-2C R/B 2.8 23:16:22 44° SSW 23:17:44 57° W 23:22:55 10° NNW
Alouette 2 Rocket 3.9 23:15:16 10° N 23:18:46 49° ENE 23:19:47 38° ESE
Meteor 1-19 Rocket 4.3 23:17:12 42° SSW 23:19:13 78° WNW 23:25:08 10° N
BREEZE-M DEB (TANK) 3.4 23:13:42 10° W 23:19:40 55° SSW 23:25:02 10° ESE
NOSS 0 Rocket 3.8 23:18:54 10° NNW 23:25:06 82° WSW 23:28:04 33° SSE
Cosmos 1975 3.8 23:25:15 10° NNW 23:28:17 30° W 23:28:17 30° W
DELTA 2 DEB (DPAF) 3.6 23:25:11 10° NNE 23:28:45 66° ESE 23:28:50 66° ESE
Cosmos 1655 Rocket 4.1 23:23:27 10° N 23:29:43 75° E 23:32:52 31° SSE
Cosmos 2266 Rocket 4.1 23:26:24 10° NNW 23:32:20 58° W 23:34:28 38° SSW
Cosmos 2322 3.9 23:28:19 10° NW 23:33:50 51° WSW 23:35:16 41° SSW
Cosmos 1812 Rocket 3.9 23:34:01 45° WSW 23:34:55 53° WNW 23:39:16 10° N
Cosmos 2297 Rocket 2.7 23:33:58 35° SSE 23:35:49 47° ESE 23:41:13 10° NE
Cosmos 44 3.9 23:32:36 10° NW 23:37:37 40° WSW 23:38:08 39° SW
Cosmos 858 Rocket 4.4 23:32:34 10° NNW 23:37:45 78° WSW 23:39:32 42° S
Cosmos 1271 Rocket 4.0 23:38:07 24° WNW 23:38:22 24° WNW 23:41:12 10° NNW
Meteor 2-20 Rocket 4.2 23:40:52 38° S 23:43:13 85° E 23:48:58 10° NNE
RESURS DK-1 2.7 23:40:40 10° NW 23:44:13 45° WSW 23:44:13 45° WSW
Cosmos 1937 Rocket 3.7 23:39:36 10° NNW 23:44:34 50° WSW 23:45:41 42° SW
Cosmos 2360 Rocket 4.3 23:44:19 10° W 23:45:22 10° W 23:45:57 10° W
Lacrosse 4 Rocket 3.0 23:46:25 20° ESE 23:46:57 21° ESE 23:49:59 10° ENE
Meteor 1-11 Rocket 4.2 23:42:23 10° NNW 23:47:49 45° W 23:49:31 35° SW
ISS -1.3 23:50:53 14° ESE 23:50:53 14° ESE 23:51:23 10° ESE
GP-B 4.2 23:44:28 10° NNW 23:48:19 31° WNW 23:49:14 28° WSW
NOSS 8 (H) 4.3 23:47:18 10° NW 23:49:51 66° NNW 23:49:51 66° NNW
Cosmos 1066 Rocket 4.4 23:49:22 33° SSE 23:51:39 59° E 23:57:01 10° NNE
NOSS 8 (E) 4.5 23:53:32 10° NW 23:56:25 61° NE 23:57:11 43° ESE
